Year,Month,Day,Hour,Minute,Value (Times are PST for temperature in C)
2011,10,15,00,00,4.70
2011,10,15,00,01,4.70
2011,10,15,00,02,4.70
2011,10,15,00,03,4.70
2011,10,15,00,04,4.70
2011,10,15,00,05,4.70
2011,10,15,00,06,4.70
2011,10,15,00,07,4.70
2011,10,15,00,08,4.70
2011,10,15,00,09,4.70
2011,10,15,00,10,4.70
2011,10,15,00,11,4.70
2011,10,15,00,12,4.70
2011,10,15,00,13,4.70
2011,10,15,00,14,4.70
2011,10,15,00,15,4.60
2011,10,15,00,16,4.60
2011,10,15,00,17,4.60
2011,10,15,00,18,4.60
2011,10,15,00,19,4.60
2011,10,15,00,20,4.60
2011,10,15,00,21,4.60
2011,10,15,00,22,4.60
2011,10,15,00,23,4.60
2011,10,15,00,24,4.60
2011,10,15,00,25,4.60
2011,10,15,00,26,4.60
2011,10,15,00,27,4.60
2011,10,15,00,28,4.60
2011,10,15,00,29,4.50
2011,10,15,00,30,4.50
2011,10,15,00,31,4.50
2011,10,15,00,32,4.50
2011,10,15,00,33,4.50
2011,10,15,00,34,4.50
2011,10,15,00,35,4.50
2011,10,15,00,36,4.50
2011,10,15,00,37,4.50
2011,10,15,00,38,4.50
2011,10,15,00,39,4.40
2011,10,15,00,40,4.40
2011,10,15,00,41,4.30
2011,10,15,00,42,4.30
2011,10,15,00,43,4.20
2011,10,15,00,44,4.20
2011,10,15,00,45,4.20
2011,10,15,00,46,4.20
2011,10,15,00,47,4.20
2011,10,15,00,48,4.20
2011,10,15,00,49,4.10
2011,10,15,00,50,4.10
2011,10,15,00,51,4.10
2011,10,15,00,52,4.10
2011,10,15,00,53,4.00
2011,10,15,00,54,4.00
2011,10,15,00,55,4.10
2011,10,15,00,56,4.10
2011,10,15,00,57,4.10
2011,10,15,00,58,4.20
2011,10,15,00,59,4.20
2011,10,15,01,00,4.20
2011,10,15,01,01,4.20
2011,10,15,01,02,4.20
2011,10,15,01,03,4.20
2011,10,15,01,04,4.20
2011,10,15,01,05,4.20
2011,10,15,01,06,4.20
2011,10,15,01,07,4.10
2011,10,15,01,08,4.10
2011,10,15,01,09,4.10
2011,10,15,01,10,4.10
2011,10,15,01,11,4.20
2011,10,15,01,12,4.20
2011,10,15,01,13,4.20
2011,10,15,01,14,4.10
2011,10,15,01,15,4.10
2011,10,15,01,16,4.10
2011,10,15,01,17,4.10
2011,10,15,01,18,4.00
2011,10,15,01,19,4.00
2011,10,15,01,20,4.00
2011,10,15,01,21,4.00
2011,10,15,01,22,4.00
2011,10,15,01,23,4.00
2011,10,15,01,24,4.00
2011,10,15,01,25,4.00
2011,10,15,01,26,3.90
2011,10,15,01,27,3.90
2011,10,15,01,28,3.90
2011,10,15,01,29,3.80
2011,10,15,01,30,3.80
2011,10,15,01,31,3.80
2011,10,15,01,32,3.80
2011,10,15,01,33,3.80
2011,10,15,01,34,3.80
2011,10,15,01,35,3.80
2011,10,15,01,36,3.80
2011,10,15,01,37,3.70
2011,10,15,01,38,3.70
2011,10,15,01,39,3.80
2011,10,15,01,40,3.80
2011,10,15,01,41,3.80
2011,10,15,01,42,3.80
2011,10,15,01,43,3.80
2011,10,15,01,44,3.80
2011,10,15,01,45,3.80
2011,10,15,01,46,3.80
2011,10,15,01,47,3.80
2011,10,15,01,48,3.80
2011,10,15,01,49,3.80
2011,10,15,01,50,3.80
2011,10,15,01,51,3.80
2011,10,15,01,52,3.80
2011,10,15,01,53,3.80
2011,10,15,01,54,3.80
2011,10,15,01,55,3.80
2011,10,15,01,56,3.80
2011,10,15,01,57,3.80
2011,10,15,01,58,3.70
2011,10,15,01,59,3.70
2011,10,15,02,00,3.70
2011,10,15,02,01,3.60
2011,10,15,02,02,3.60
2011,10,15,02,03,3.50
2011,10,15,02,04,3.50
2011,10,15,02,05,3.50
2011,10,15,02,06,3.40
2011,10,15,02,07,3.40
2011,10,15,02,08,3.40
2011,10,15,02,09,3.40
2011,10,15,02,10,3.40
2011,10,15,02,11,3.40
2011,10,15,02,12,3.40
2011,10,15,02,13,3.40
2011,10,15,02,14,3.40
2011,10,15,02,15,3.40
2011,10,15,02,16,3.40
2011,10,15,02,17,3.40
2011,10,15,02,18,3.40
2011,10,15,02,19,3.40
2011,10,15,02,20,3.40
2011,10,15,02,21,3.40
2011,10,15,02,22,3.40
2011,10,15,02,23,3.30
2011,10,15,02,24,3.30
2011,10,15,02,25,3.30
2011,10,15,02,26,3.30
2011,10,15,02,27,3.30
2011,10,15,02,28,3.30
2011,10,15,02,29,3.30
2011,10,15,02,30,3.40
2011,10,15,02,31,3.40
2011,10,15,02,32,3.40
2011,10,15,02,33,3.40
2011,10,15,02,34,3.40
2011,10,15,02,35,3.40
2011,10,15,02,36,3.50
2011,10,15,02,37,3.50
2011,10,15,02,38,3.50
2011,10,15,02,39,3.50
2011,10,15,02,40,3.50
2011,10,15,02,41,3.50
2011,10,15,02,42,3.50
2011,10,15,02,43,3.50
2011,10,15,02,44,3.50
2011,10,15,02,45,3.40
2011,10,15,02,46,3.40
2011,10,15,02,47,3.40
2011,10,15,02,48,3.40
2011,10,15,02,49,3.50
2011,10,15,02,50,3.50
2011,10,15,02,51,3.50
2011,10,15,02,52,3.50
2011,10,15,02,53,3.60
2011,10,15,02,54,3.50
2011,10,15,02,55,3.50
2011,10,15,02,56,3.50
2011,10,15,02,57,3.50
2011,10,15,02,58,3.50
2011,10,15,02,59,3.40
2011,10,15,03,00,3.40
2011,10,15,03,01,3.30
2011,10,15,03,02,3.30
2011,10,15,03,03,3.30
2011,10,15,03,04,3.30
2011,10,15,03,05,3.30
2011,10,15,03,06,3.20
2011,10,15,03,07,3.20
2011,10,15,03,08,3.20
2011,10,15,03,09,3.20
2011,10,15,03,10,3.20
2011,10,15,03,11,3.10
2011,10,15,03,12,3.10
2011,10,15,03,13,3.10
2011,10,15,03,14,3.10
2011,10,15,03,15,3.10
2011,10,15,03,16,3.10
2011,10,15,03,17,3.10
2011,10,15,03,18,3.10
2011,10,15,03,19,3.10
2011,10,15,03,20,3.10
2011,10,15,03,21,3.10
2011,10,15,03,22,3.10
2011,10,15,03,23,3.10
2011,10,15,03,24,3.10
2011,10,15,03,25,3.10
2011,10,15,03,26,3.10
2011,10,15,03,27,3.10
2011,10,15,03,28,3.10
2011,10,15,03,29,3.10
2011,10,15,03,30,3.10
2011,10,15,03,31,3.10
2011,10,15,03,32,3.10
2011,10,15,03,33,3.10
2011,10,15,03,34,3.10
2011,10,15,03,35,3.10
2011,10,15,03,36,3.10
2011,10,15,03,37,3.10
2011,10,15,03,38,3.10
2011,10,15,03,39,3.10
2011,10,15,03,40,3.10
2011,10,15,03,41,3.10
2011,10,15,03,42,3.10
2011,10,15,03,43,3.10
2011,10,15,03,44,3.10
2011,10,15,03,45,3.00
2011,10,15,03,46,2.90
2011,10,15,03,47,2.90
2011,10,15,03,48,2.90
2011,10,15,03,49,2.80
2011,10,15,03,50,2.80
2011,10,15,03,51,2.70
2011,10,15,03,52,2.70
2011,10,15,03,53,2.70
2011,10,15,03,54,2.70
2011,10,15,03,55,2.60
2011,10,15,03,56,2.60
2011,10,15,03,57,2.70
2011,10,15,03,58,2.70
2011,10,15,03,59,2.70
2011,10,15,04,00,2.80
2011,10,15,04,01,2.80
2011,10,15,04,02,2.80
2011,10,15,04,03,2.80
2011,10,15,04,04,2.80
2011,10,15,04,05,2.80
2011,10,15,04,06,2.70
2011,10,15,04,07,2.70
2011,10,15,04,08,2.70
2011,10,15,04,09,2.70
2011,10,15,04,10,2.70
2011,10,15,04,11,2.70
2011,10,15,04,12,2.70
2011,10,15,04,13,2.60
2011,10,15,04,14,2.70
2011,10,15,04,15,2.70
2011,10,15,04,16,2.70
2011,10,15,04,17,2.70
2011,10,15,04,18,2.70
2011,10,15,04,19,2.70
2011,10,15,04,20,2.70
2011,10,15,04,21,2.70
2011,10,15,04,22,2.70
2011,10,15,04,23,2.70
2011,10,15,04,24,2.70
2011,10,15,04,25,2.70
2011,10,15,04,26,2.70
2011,10,15,04,27,2.70
2011,10,15,04,28,2.70
2011,10,15,04,29,2.70
2011,10,15,04,30,2.70
2011,10,15,04,31,2.70
2011,10,15,04,32,2.70
2011,10,15,04,33,2.70
2011,10,15,04,34,2.70
2011,10,15,04,35,2.70
2011,10,15,04,36,2.70
2011,10,15,04,37,2.70
2011,10,15,04,38,2.70
2011,10,15,04,39,2.70
2011,10,15,04,40,2.70
2011,10,15,04,41,2.70
2011,10,15,04,42,2.70
2011,10,15,04,43,2.70
2011,10,15,04,44,2.70
2011,10,15,04,45,2.70
2011,10,15,04,46,2.70
2011,10,15,04,47,2.70
2011,10,15,04,48,2.70
2011,10,15,04,49,2.70
2011,10,15,04,50,2.70
2011,10,15,04,51,2.70
2011,10,15,04,52,2.70
2011,10,15,04,53,2.70
2011,10,15,04,54,2.70
2011,10,15,04,55,2.70
2011,10,15,04,56,2.70
2011,10,15,04,57,2.70
2011,10,15,04,58,2.70
2011,10,15,04,59,2.70
2011,10,15,05,00,2.70
2011,10,15,05,01,2.70
2011,10,15,05,02,2.70
2011,10,15,05,03,2.70
2011,10,15,05,04,2.70
2011,10,15,05,05,2.70
2011,10,15,05,06,2.70
2011,10,15,05,07,2.70
2011,10,15,05,08,2.70
2011,10,15,05,09,2.70
2011,10,15,05,10,2.70
2011,10,15,05,11,2.70
2011,10,15,05,12,2.70
2011,10,15,05,13,2.70
2011,10,15,05,14,2.60
2011,10,15,05,15,2.60
2011,10,15,05,16,2.60
2011,10,15,05,17,2.60
2011,10,15,05,18,2.60
2011,10,15,05,19,2.60
2011,10,15,05,20,2.60
2011,10,15,05,21,2.60
2011,10,15,05,22,2.60
2011,10,15,05,23,2.50
2011,10,15,05,24,2.50
2011,10,15,05,25,2.50
2011,10,15,05,26,2.50
2011,10,15,05,27,2.60
2011,10,15,05,28,2.60
2011,10,15,05,29,2.60
2011,10,15,05,30,2.70
2011,10,15,05,31,2.70
2011,10,15,05,32,2.70
2011,10,15,05,33,2.70
2011,10,15,05,34,2.70
2011,10,15,05,35,2.80
2011,10,15,05,36,2.90
2011,10,15,05,37,2.90
2011,10,15,05,38,2.90
2011,10,15,05,39,2.90
2011,10,15,05,40,2.90
2011,10,15,05,41,2.80
2011,10,15,05,42,2.80
2011,10,15,05,43,2.80
2011,10,15,05,44,2.70
2011,10,15,05,45,2.70
2011,10,15,05,46,2.70
2011,10,15,05,47,2.70
2011,10,15,05,48,2.70
2011,10,15,05,49,2.60
2011,10,15,05,50,2.60
2011,10,15,05,51,2.60
2011,10,15,05,52,2.70
2011,10,15,05,53,2.70
2011,10,15,05,54,2.80
2011,10,15,05,55,2.90
2011,10,15,05,56,3.00
2011,10,15,05,57,3.10
2011,10,15,05,58,3.10
2011,10,15,05,59,3.00
2011,10,15,06,00,2.90
2011,10,15,06,01,2.80
2011,10,15,06,02,2.80
2011,10,15,06,03,2.80
2011,10,15,06,04,2.90
2011,10,15,06,05,3.10
2011,10,15,06,06,3.40
2011,10,15,06,07,3.60
2011,10,15,06,08,3.70
2011,10,15,06,09,3.60
2011,10,15,06,10,3.40
2011,10,15,06,11,3.30
2011,10,15,06,12,3.10
2011,10,15,06,13,3.10
2011,10,15,06,14,3.10
2011,10,15,06,15,3.10
2011,10,15,06,16,3.10
2011,10,15,06,17,3.10
2011,10,15,06,18,3.10
2011,10,15,06,19,3.30
2011,10,15,06,20,3.50
2011,10,15,06,21,3.60
2011,10,15,06,22,3.80
2011,10,15,06,23,3.80
2011,10,15,06,24,3.90
2011,10,15,06,25,3.90
2011,10,15,06,26,3.80
2011,10,15,06,27,3.80
2011,10,15,06,28,3.80
2011,10,15,06,29,3.80
2011,10,15,06,30,3.90
2011,10,15,06,31,4.00
2011,10,15,06,32,4.10
2011,10,15,06,33,4.20
2011,10,15,06,34,4.30
2011,10,15,06,35,4.40
2011,10,15,06,36,4.50
2011,10,15,06,37,4.50
2011,10,15,06,38,4.60
2011,10,15,06,39,4.70
2011,10,15,06,40,4.70
2011,10,15,06,41,4.80
2011,10,15,06,42,4.80
2011,10,15,06,43,4.90
2011,10,15,06,44,4.90
2011,10,15,06,45,4.90
2011,10,15,06,46,4.90
2011,10,15,06,47,4.90
2011,10,15,06,48,4.90
2011,10,15,06,49,4.90
2011,10,15,06,50,4.90
2011,10,15,06,51,4.80
2011,10,15,06,52,4.80
2011,10,15,06,53,4.70
2011,10,15,06,54,4.60
2011,10,15,06,55,4.60
2011,10,15,06,56,4.60
2011,10,15,06,57,4.60
2011,10,15,06,58,4.60
2011,10,15,06,59,4.60
2011,10,15,07,00,4.60
2011,10,15,07,01,4.70
2011,10,15,07,02,4.80
2011,10,15,07,03,4.80
2011,10,15,07,04,4.90
2011,10,15,07,05,4.90
2011,10,15,07,06,5.00
2011,10,15,07,07,5.10
2011,10,15,07,08,5.10
2011,10,15,07,09,5.10
2011,10,15,07,10,5.10
2011,10,15,07,11,5.10
2011,10,15,07,12,5.10
2011,10,15,07,13,5.10
2011,10,15,07,14,5.10
2011,10,15,07,15,5.10
2011,10,15,07,16,4.90
2011,10,15,07,17,4.90
2011,10,15,07,18,4.90
2011,10,15,07,19,4.90
2011,10,15,07,20,4.90
2011,10,15,07,21,4.90
2011,10,15,07,22,4.90
2011,10,15,07,23,4.90
2011,10,15,07,24,4.90
2011,10,15,07,25,4.90
2011,10,15,07,26,4.90
2011,10,15,07,27,5.00
2011,10,15,07,28,5.10
2011,10,15,07,29,5.10
2011,10,15,07,30,5.10
2011,10,15,07,31,5.10
2011,10,15,07,32,5.10
2011,10,15,07,33,5.10
2011,10,15,07,34,5.10
2011,10,15,07,35,5.10
2011,10,15,07,36,5.20
2011,10,15,07,37,5.20
2011,10,15,07,38,5.20
2011,10,15,07,39,5.20
2011,10,15,07,40,5.10
2011,10,15,07,41,5.10
2011,10,15,07,42,5.10
2011,10,15,07,43,5.10
2011,10,15,07,44,5.10
2011,10,15,07,45,5.00
2011,10,15,07,46,4.90
2011,10,15,07,47,4.90
2011,10,15,07,48,4.90
2011,10,15,07,49,4.90
2011,10,15,07,50,5.00
2011,10,15,07,51,5.10
2011,10,15,07,52,5.10
2011,10,15,07,53,5.10
2011,10,15,07,54,5.10
2011,10,15,07,55,5.10
2011,10,15,07,56,5.20
2011,10,15,07,57,5.30
2011,10,15,07,58,5.30
2011,10,15,07,59,5.30
2011,10,15,08,00,5.30
2011,10,15,08,01,5.40
2011,10,15,08,02,5.40
2011,10,15,08,03,5.40
2011,10,15,08,04,5.50
2011,10,15,08,05,5.50
2011,10,15,08,06,5.50
2011,10,15,08,07,5.50
2011,10,15,08,08,5.50
2011,10,15,08,09,5.50
2011,10,15,08,10,5.50
2011,10,15,08,11,5.50
2011,10,15,08,12,5.60
2011,10,15,08,13,5.60
2011,10,15,08,14,5.60
2011,10,15,08,15,5.60
2011,10,15,08,16,5.70
2011,10,15,08,17,5.70
2011,10,15,08,18,5.60
2011,10,15,08,19,5.50
2011,10,15,08,20,5.40
2011,10,15,08,21,5.30
2011,10,15,08,22,5.20
2011,10,15,08,23,5.20
2011,10,15,08,24,5.20
2011,10,15,08,25,5.20
2011,10,15,08,26,5.20
2011,10,15,08,27,5.20
2011,10,15,08,28,5.10
2011,10,15,08,29,5.10
2011,10,15,08,30,5.10
2011,10,15,08,31,5.10
2011,10,15,08,32,5.10
2011,10,15,08,33,5.10
2011,10,15,08,34,5.20
2011,10,15,08,35,5.30
2011,10,15,08,36,5.30
2011,10,15,08,37,5.50
2011,10,15,08,38,5.50
2011,10,15,08,39,5.50
2011,10,15,08,40,5.60
2011,10,15,08,41,5.60
2011,10,15,08,42,5.70
2011,10,15,08,43,5.70
2011,10,15,08,44,5.70
2011,10,15,08,45,5.80
2011,10,15,08,46,5.90
2011,10,15,08,47,5.90
2011,10,15,08,48,6.00
2011,10,15,08,49,6.00
2011,10,15,08,50,6.00
2011,10,15,08,51,6.10
2011,10,15,08,52,6.20
2011,10,15,08,53,6.20
2011,10,15,08,54,6.20
2011,10,15,08,55,6.20
2011,10,15,08,56,6.30
2011,10,15,08,57,6.30
2011,10,15,08,58,6.40
2011,10,15,08,59,6.40
2011,10,15,09,00,6.40
2011,10,15,09,01,6.40
2011,10,15,09,02,6.50
2011,10,15,09,03,6.60
2011,10,15,09,04,6.60
2011,10,15,09,05,6.60
2011,10,15,09,06,6.60
2011,10,15,09,07,6.60
2011,10,15,09,08,6.70
2011,10,15,09,09,6.70
2011,10,15,09,10,6.70
2011,10,15,09,11,6.70
2011,10,15,09,12,6.80
2011,10,15,09,13,6.80
2011,10,15,09,14,6.80
2011,10,15,09,15,6.80
2011,10,15,09,16,6.80
2011,10,15,09,17,6.80
2011,10,15,09,18,6.90
2011,10,15,09,19,6.90
2011,10,15,09,20,7.00
2011,10,15,09,21,7.00
2011,10,15,09,22,7.00
2011,10,15,09,23,7.00
2011,10,15,09,24,7.10
2011,10,15,09,25,7.10
2011,10,15,09,26,7.20
2011,10,15,09,27,7.20
2011,10,15,09,28,7.30
2011,10,15,09,29,7.30
2011,10,15,09,30,7.30
2011,10,15,09,31,7.40
2011,10,15,09,32,7.40
2011,10,15,09,33,7.50
2011,10,15,09,34,7.50
2011,10,15,09,35,7.50
2011,10,15,09,36,7.50
2011,10,15,09,37,7.50
2011,10,15,09,38,7.50
2011,10,15,09,39,7.50
2011,10,15,09,40,7.40
2011,10,15,09,41,7.40
2011,10,15,09,42,7.40
2011,10,15,09,43,7.50
2011,10,15,09,44,7.50
2011,10,15,09,45,7.50
2011,10,15,09,46,7.50
2011,10,15,09,47,7.50
2011,10,15,09,48,7.60
2011,10,15,09,49,7.60
2011,10,15,09,50,7.60
2011,10,15,09,51,7.60
2011,10,15,09,52,7.60
2011,10,15,09,53,7.60
2011,10,15,09,54,7.60
2011,10,15,09,55,7.60
2011,10,15,09,56,7.60
2011,10,15,09,57,7.70
2011,10,15,09,58,7.70
2011,10,15,09,59,7.70
2011,10,15,10,00,7.70
2011,10,15,10,01,7.80
2011,10,15,10,02,7.80
2011,10,15,10,03,7.80
2011,10,15,10,04,7.80
2011,10,15,10,05,7.80
2011,10,15,10,06,7.80
2011,10,15,10,07,7.80
2011,10,15,10,08,7.90
2011,10,15,10,09,7.90
2011,10,15,10,10,7.90
2011,10,15,10,11,7.90
2011,10,15,10,12,7.90
2011,10,15,10,13,7.90
2011,10,15,10,14,8.00
2011,10,15,10,15,8.00
2011,10,15,10,16,7.90
2011,10,15,10,17,8.00
2011,10,15,10,18,8.00
2011,10,15,10,19,8.00
2011,10,15,10,20,8.00
2011,10,15,10,21,8.00
2011,10,15,10,22,8.00
2011,10,15,10,23,8.00
2011,10,15,10,24,8.10
2011,10,15,10,25,8.10
2011,10,15,10,26,8.10
2011,10,15,10,27,8.10
2011,10,15,10,28,8.20
2011,10,15,10,29,8.20
2011,10,15,10,30,8.20
2011,10,15,10,31,8.20
2011,10,15,10,32,8.20
2011,10,15,10,33,8.20
2011,10,15,10,34,8.20
2011,10,15,10,35,8.20
2011,10,15,10,36,8.30
2011,10,15,10,37,8.30
2011,10,15,10,38,8.30
2011,10,15,10,39,8.30
2011,10,15,10,40,8.30
2011,10,15,10,41,8.30
2011,10,15,10,42,8.40
2011,10,15,10,43,8.40
2011,10,15,10,44,8.40
2011,10,15,10,45,8.50
2011,10,15,10,46,8.50
2011,10,15,10,47,8.50
2011,10,15,10,48,8.60
2011,10,15,10,49,8.60
2011,10,15,10,50,8.70
2011,10,15,10,51,8.70
2011,10,15,10,52,8.70
2011,10,15,10,53,8.70
2011,10,15,10,54,8.80
2011,10,15,10,55,8.80
2011,10,15,10,56,8.90
2011,10,15,10,57,8.90
2011,10,15,10,58,8.90
2011,10,15,10,59,9.00
2011,10,15,11,00,9.00
2011,10,15,11,01,9.00
2011,10,15,11,02,9.00
2011,10,15,11,03,9.00
2011,10,15,11,04,9.00
2011,10,15,11,05,9.10
2011,10,15,11,06,9.10
2011,10,15,11,07,9.20
2011,10,15,11,08,9.30
2011,10,15,11,09,9.40
2011,10,15,11,10,9.40
2011,10,15,11,11,9.50
2011,10,15,11,12,9.50
2011,10,15,11,13,9.60
2011,10,15,11,14,9.60
2011,10,15,11,15,9.60
2011,10,15,11,16,9.60
2011,10,15,11,17,9.60
2011,10,15,11,18,9.60
2011,10,15,11,19,9.70
2011,10,15,11,20,9.70
2011,10,15,11,21,9.80
2011,10,15,11,22,9.80
2011,10,15,11,23,9.80
2011,10,15,11,24,9.80
2011,10,15,11,25,9.80
2011,10,15,11,26,9.80
2011,10,15,11,27,9.80
2011,10,15,11,28,9.80
2011,10,15,11,29,9.80
2011,10,15,11,30,9.90
2011,10,15,11,31,9.90
2011,10,15,11,32,10.00
2011,10,15,11,33,10.10
2011,10,15,11,34,10.10
2011,10,15,11,35,10.20
2011,10,15,11,36,10.30
2011,10,15,11,37,10.40
2011,10,15,11,38,10.40
2011,10,15,11,39,10.60
2011,10,15,11,40,10.60
2011,10,15,11,41,10.60
2011,10,15,11,42,10.60
2011,10,15,11,43,10.50
2011,10,15,11,44,10.60
2011,10,15,11,45,10.60
2011,10,15,11,46,10.60
2011,10,15,11,47,10.60
2011,10,15,11,48,10.60
2011,10,15,11,49,10.60
2011,10,15,11,50,10.60
2011,10,15,11,51,10.60
2011,10,15,11,52,10.60
2011,10,15,11,53,10.70
2011,10,15,11,54,10.80
2011,10,15,11,55,10.80
2011,10,15,11,56,10.80
2011,10,15,11,57,10.90
2011,10,15,11,58,10.90
2011,10,15,11,59,10.90
2011,10,15,12,00,10.90
2011,10,15,12,01,10.90
2011,10,15,12,02,10.90
2011,10,15,12,03,10.90
2011,10,15,12,04,10.90
2011,10,15,12,05,11.10
2011,10,15,12,06,11.10
2011,10,15,12,07,11.10
2011,10,15,12,08,11.10
2011,10,15,12,09,11.10
2011,10,15,12,10,11.10
2011,10,15,12,11,11.10
2011,10,15,12,12,10.90
2011,10,15,12,13,10.90
2011,10,15,12,14,10.90
2011,10,15,12,15,10.90
2011,10,15,12,16,10.90
2011,10,15,12,17,10.90
2011,10,15,12,18,10.90
2011,10,15,12,19,10.90
2011,10,15,12,20,10.90
2011,10,15,12,21,10.90
2011,10,15,12,22,11.10
2011,10,15,12,23,11.20
2011,10,15,12,24,11.20
2011,10,15,12,25,11.20
2011,10,15,12,26,11.20
2011,10,15,12,27,11.20
2011,10,15,12,28,11.10
2011,10,15,12,29,11.10
2011,10,15,12,30,11.10
2011,10,15,12,31,11.20
2011,10,15,12,32,11.30
2011,10,15,12,33,11.30
2011,10,15,12,34,11.30
2011,10,15,12,35,11.30
2011,10,15,12,36,11.30
2011,10,15,12,37,11.40
2011,10,15,12,38,11.50
2011,10,15,12,39,11.60
2011,10,15,12,40,11.60
2011,10,15,12,41,11.70
2011,10,15,12,42,11.70
2011,10,15,12,43,11.80
2011,10,15,12,44,11.80
2011,10,15,12,45,11.80
2011,10,15,12,46,11.80
2011,10,15,12,47,11.80
2011,10,15,12,48,11.80
2011,10,15,12,49,11.80
2011,10,15,12,50,11.70
2011,10,15,12,51,11.70
2011,10,15,12,52,11.60
2011,10,15,12,53,11.60
2011,10,15,12,54,11.60
2011,10,15,12,55,11.60
2011,10,15,12,56,11.60
2011,10,15,12,57,11.60
2011,10,15,12,58,11.60
2011,10,15,12,59,11.70
2011,10,15,13,00,11.70
2011,10,15,13,01,11.60
2011,10,15,13,02,11.60
2011,10,15,13,03,11.60
2011,10,15,13,04,11.60
2011,10,15,13,05,11.60
2011,10,15,13,06,11.60
2011,10,15,13,07,11.60
2011,10,15,13,08,11.60
2011,10,15,13,09,11.70
2011,10,15,13,10,11.70
2011,10,15,13,11,11.80
2011,10,15,13,12,11.80
2011,10,15,13,13,11.90
2011,10,15,13,14,11.90
2011,10,15,13,15,12.00
2011,10,15,13,16,12.00
2011,10,15,13,17,12.00
2011,10,15,13,18,12.10
2011,10,15,13,19,12.20
2011,10,15,13,20,12.20
2011,10,15,13,21,12.20
2011,10,15,13,22,12.10
2011,10,15,13,23,12.10
2011,10,15,13,24,12.10
2011,10,15,13,25,12.10
2011,10,15,13,26,12.10
2011,10,15,13,27,12.20
2011,10,15,13,28,12.10
2011,10,15,13,29,12.00
2011,10,15,13,30,12.00
2011,10,15,13,31,11.90
2011,10,15,13,32,11.90
2011,10,15,13,33,11.90
2011,10,15,13,34,11.90
2011,10,15,13,35,11.80
2011,10,15,13,36,11.80
2011,10,15,13,37,11.80
2011,10,15,13,38,11.80
2011,10,15,13,39,11.80
2011,10,15,13,40,11.80
2011,10,15,13,41,11.80
2011,10,15,13,42,11.90
2011,10,15,13,43,11.90
2011,10,15,13,44,12.00
2011,10,15,13,45,12.10
2011,10,15,13,46,12.30
2011,10,15,13,47,12.30
2011,10,15,13,48,12.30
2011,10,15,13,49,12.40
2011,10,15,13,50,12.40
2011,10,15,13,51,12.40
2011,10,15,13,52,12.40
2011,10,15,13,53,12.40
2011,10,15,13,54,12.40
2011,10,15,13,55,12.40
2011,10,15,13,56,12.30
2011,10,15,13,57,12.30
2011,10,15,13,58,12.30
2011,10,15,13,59,12.20
2011,10,15,14,00,12.10
2011,10,15,14,01,12.00
2011,10,15,14,02,12.00
2011,10,15,14,03,12.00
2011,10,15,14,04,12.10
2011,10,15,14,05,12.20
2011,10,15,14,06,12.30
2011,10,15,14,07,12.40
2011,10,15,14,08,12.50
2011,10,15,14,09,12.50
2011,10,15,14,10,12.50
2011,10,15,14,11,12.50
2011,10,15,14,12,12.60
2011,10,15,14,13,12.50
2011,10,15,14,14,12.50
2011,10,15,14,15,12.50
2011,10,15,14,16,12.50
2011,10,15,14,17,12.50
2011,10,15,14,18,12.60
2011,10,15,14,19,12.60
2011,10,15,14,20,12.50
2011,10,15,14,21,12.60
2011,10,15,14,22,12.70
2011,10,15,14,23,12.70
2011,10,15,14,24,12.70
2011,10,15,14,25,12.70
2011,10,15,14,26,12.60
2011,10,15,14,27,12.60
2011,10,15,14,28,12.60
2011,10,15,14,29,12.60
2011,10,15,14,30,12.60
2011,10,15,14,31,12.60
2011,10,15,14,32,12.60
2011,10,15,14,33,12.60
2011,10,15,14,34,12.70
2011,10,15,14,35,12.70
2011,10,15,14,36,12.60
2011,10,15,14,37,12.50
2011,10,15,14,38,12.50
2011,10,15,14,39,12.50
2011,10,15,14,40,12.50
2011,10,15,14,41,12.50
2011,10,15,14,42,12.50
2011,10,15,14,43,12.60
2011,10,15,14,44,12.60
2011,10,15,14,45,12.70
2011,10,15,14,46,12.70
2011,10,15,14,47,12.80
2011,10,15,14,48,12.80
2011,10,15,14,49,12.80
2011,10,15,14,50,12.80
2011,10,15,14,51,12.80
2011,10,15,14,52,12.70
2011,10,15,14,53,12.70
2011,10,15,14,54,12.80
2011,10,15,14,55,12.80
2011,10,15,14,56,12.80
2011,10,15,14,57,12.80
2011,10,15,14,58,12.90
2011,10,15,14,59,12.90
2011,10,15,15,00,12.90
2011,10,15,15,01,12.90
2011,10,15,15,02,12.80
2011,10,15,15,03,12.90
2011,10,15,15,04,12.90
2011,10,15,15,05,12.90
2011,10,15,15,06,13.00
2011,10,15,15,07,13.00
2011,10,15,15,08,13.00
2011,10,15,15,09,13.00
2011,10,15,15,10,13.00
2011,10,15,15,11,12.90
2011,10,15,15,12,12.90
2011,10,15,15,13,12.90
2011,10,15,15,14,13.00
2011,10,15,15,15,13.00
2011,10,15,15,16,13.10
2011,10,15,15,17,13.10
2011,10,15,15,18,13.10
2011,10,15,15,19,13.10
2011,10,15,15,20,13.00
2011,10,15,15,21,12.90
2011,10,15,15,22,12.90
2011,10,15,15,23,12.90
2011,10,15,15,24,12.90
2011,10,15,15,25,12.90
2011,10,15,15,26,12.80
2011,10,15,15,27,12.80
2011,10,15,15,28,12.90
2011,10,15,15,29,12.90
2011,10,15,15,30,13.00
2011,10,15,15,31,13.00
2011,10,15,15,32,13.10
2011,10,15,15,33,13.20
2011,10,15,15,34,13.20
2011,10,15,15,35,13.30
2011,10,15,15,36,13.30
2011,10,15,15,37,13.30
2011,10,15,15,38,13.30
2011,10,15,15,39,13.30
2011,10,15,15,40,13.30
2011,10,15,15,41,13.30
2011,10,15,15,42,13.30
2011,10,15,15,43,13.40
2011,10,15,15,44,13.40
2011,10,15,15,45,13.50
2011,10,15,15,46,13.50
2011,10,15,15,47,13.50
2011,10,15,15,48,13.60
2011,10,15,15,49,13.50
2011,10,15,15,50,13.40
2011,10,15,15,51,13.50
2011,10,15,15,52,13.50
2011,10,15,15,53,13.50
2011,10,15,15,54,13.50
2011,10,15,15,55,13.50
2011,10,15,15,56,13.50
2011,10,15,15,57,13.50
2011,10,15,15,58,13.50
2011,10,15,15,59,13.50
2011,10,15,16,00,13.50
2011,10,15,16,01,13.50
2011,10,15,16,02,13.50
2011,10,15,16,03,13.50
2011,10,15,16,04,13.50
2011,10,15,16,05,13.50
2011,10,15,16,06,13.50
2011,10,15,16,07,13.50
2011,10,15,16,08,13.50
2011,10,15,16,09,13.40
2011,10,15,16,10,13.50
2011,10,15,16,11,13.50
2011,10,15,16,12,13.50
2011,10,15,16,13,13.50
2011,10,15,16,14,13.50
2011,10,15,16,15,13.50
2011,10,15,16,16,13.50
2011,10,15,16,17,13.50
2011,10,15,16,18,13.50
2011,10,15,16,19,13.50
2011,10,15,16,20,13.50
2011,10,15,16,21,13.40
2011,10,15,16,22,13.30
2011,10,15,16,23,13.30
2011,10,15,16,24,13.30
2011,10,15,16,25,13.30
2011,10,15,16,26,13.30
2011,10,15,16,27,13.30
2011,10,15,16,28,13.30
2011,10,15,16,29,13.30
2011,10,15,16,30,13.30
2011,10,15,16,31,13.30
2011,10,15,16,32,13.30
2011,10,15,16,33,13.30
2011,10,15,16,34,13.20
2011,10,15,16,35,13.10
2011,10,15,16,36,13.10
2011,10,15,16,37,13.10
2011,10,15,16,38,13.10
2011,10,15,16,39,13.00
2011,10,15,16,40,13.00
2011,10,15,16,41,13.00
2011,10,15,16,42,13.00
2011,10,15,16,43,13.00
2011,10,15,16,44,12.90
2011,10,15,16,45,12.90
2011,10,15,16,46,12.90
2011,10,15,16,47,12.90
2011,10,15,16,48,12.80
2011,10,15,16,49,12.80
2011,10,15,16,50,12.70
2011,10,15,16,51,12.70
2011,10,15,16,52,12.70
2011,10,15,16,53,12.60
2011,10,15,16,54,12.60
2011,10,15,16,55,12.60
2011,10,15,16,56,12.60
2011,10,15,16,57,12.60
2011,10,15,16,58,12.70
2011,10,15,16,59,12.60
2011,10,15,17,00,12.60
2011,10,15,17,01,12.50
2011,10,15,17,02,12.50
2011,10,15,17,03,12.50
2011,10,15,17,04,12.50
2011,10,15,17,05,12.50
2011,10,15,17,06,12.50
2011,10,15,17,07,12.50
2011,10,15,17,08,12.50
2011,10,15,17,09,12.50
2011,10,15,17,10,12.50
2011,10,15,17,11,12.40
2011,10,15,17,12,12.40
2011,10,15,17,13,12.40
2011,10,15,17,14,12.30
2011,10,15,17,15,12.30
2011,10,15,17,16,12.20
2011,10,15,17,17,12.10
2011,10,15,17,18,12.10
2011,10,15,17,19,12.10
2011,10,15,17,20,12.10
2011,10,15,17,21,12.20
2011,10,15,17,22,12.20
2011,10,15,17,23,12.20
2011,10,15,17,24,12.20
2011,10,15,17,25,12.20
2011,10,15,17,26,12.20
2011,10,15,17,27,12.20
2011,10,15,17,28,12.20
2011,10,15,17,29,12.20
2011,10,15,17,30,12.20
2011,10,15,17,31,12.20
2011,10,15,17,32,12.10
2011,10,15,17,33,12.10
2011,10,15,17,34,12.10
2011,10,15,17,35,12.10
2011,10,15,17,36,12.10
2011,10,15,17,37,12.10
2011,10,15,17,38,12.10
2011,10,15,17,39,12.10
2011,10,15,17,40,12.10
2011,10,15,17,41,12.10
2011,10,15,17,42,12.10
2011,10,15,17,43,12.00
2011,10,15,17,44,12.00
2011,10,15,17,45,12.00
2011,10,15,17,46,11.90
2011,10,15,17,47,11.90
2011,10,15,17,48,11.90
2011,10,15,17,49,11.90